Skip Page Navigation
NASA JPL Caltech
NASA Logo - Jet Propulsion Laboratory + View the NASA Portal
+ Center for Near-Earth Object Studies
JPL Home Earth Solar System Stars & Galaxies Technology
JPL Solar System Dynamics
BODIES ORBITS EPHEMERIDES TOOLS PHYSICAL DATA DISCOVERY FAQ SITE MAP
JPL Small-Body Database Browser
Search: [ help ]  
362186 (2009 FF67)
Classification: Main-belt Asteroid          SPK-ID: 2362186
Ephemeris | Orbit Diagram | Orbital Elements | Mission Design | Physical Parameters | Discovery Circumstances ]

[ show orbit diagram ]
Orbital Elements at Epoch 2459396.5 (2021-Jul-01.0) TDB
Reference: JPL 12 (heliocentric ecliptic J2000)
 Element Value Uncertainty (1-sigma)   Units 
e .180397195870016 2.0035e-07  
a 2.472511953898652 4.0043e-08 au
q 2.026477730660241 4.6871e-07 au
i 1.399715214675371 1.0306e-05 deg
node 167.0516901792298 0.0005904 deg
peri 12.9445660848604 0.0005974 deg
M 63.05121442171817 0.00010422 deg
tp 2459147.787861372525
(2020-Oct-25.28786137)
0.00040572 TDB
period 1420.057816920493
3.89
3.4497e-05
9.445e-08
d
yr
n .2535108047788422 6.1585e-09 deg/d
Q 2.918546177137064 4.7267e-08 au
  Orbit Determination Parameters
   # obs. used (total)      104  
   data-arc span      6879 days (18.83 yr)  
   first obs. used      2001-02-17  
   last obs. used      2019-12-19  
   planetary ephem.      DE441  
   SB-pert. ephem.      SB441-N16  
   condition code      0  
   norm. resid. RMS      .53876  
   source      ORB  
   producer      Otto Matic  
   solution date      2021-Apr-14 09:38:33  

Additional Information
 Earth MOID = 1.03061 au 
 Jupiter MOID = 2.03932 au 
 T_jup = 3.460 
[ hide covariance matrix ]
Orbital Elements at Epoch 2456652.5 (2013-Dec-26.0) TDB
Reference: JPL 12 (heliocentric ecliptic J2000)
 Element Value Uncertainty (1-sigma)   Units 
e .1806585289385456 2.0074e-07  
q 2.026306233794281 4.7044e-07 au
tp 2456307.721919722688
(2013-Jan-15.22191972)
0.00034541 TDB
node 167.0601092429016 0.00059082 deg
peri 13.06295892471855 0.00059773 deg
i 1.398755470356404 1.03e-05 deg
  Orbit Determination Parameters
   # obs. used (total)      104  
   data-arc span      6879 days (18.83 yr)  
   first obs. used      2001-02-17  
   last obs. used      2019-12-19  
   planetary ephem.      DE441  
   SB-pert. ephem.      SB441-N16  
   condition code      0  
   norm. resid. RMS      .53876  
   source      ORB  
   producer      Otto Matic  
   solution date      2021-Apr-14 09:38:33  

Additional Information
 Jupiter MOID = 2.03932 au 
 T_jup = 3.460 
Orbit Covariance (6×6)
  e q tp node peri i
e 4.029496644253298E-14 -9.435969463140242E-14 6.438311904631753E-11 2.459762382407988E-12 1.68695032822003E-11 -9.320956339690238E-15
q -9.435969463140242E-14 2.213130666967339E-13 -1.499004369482264E-10 -5.740708889780283E-12 -3.923335081128433E-11 2.185527191717902E-14
tp 6.438311904631753E-11 -1.499004369482264E-10 1.193104280892308E-7 4.215494898506279E-9 3.189699199557547E-8 -1.654664874249552E-11
node 2.459762382407988E-12 -5.740708889780283E-12 4.215494898506279E-9 3.490655744357197E-7 -3.476906055579718E-7 4.322817064820926E-9
peri 1.68695032822003E-11 -3.923335081128433E-11 3.189699199557547E-8 -3.476906055579718E-7 3.572863592629978E-7 -4.326521393752346E-9
i -9.320956339690238E-15 2.185527191717902E-14 -1.654664874249552E-11 4.322817064820926E-9 -4.326521393752346E-9 1.060886045046673E-10

Ephemeris | Orbit Diagram | Orbital Elements | Mission Design | Physical Parameters | Discovery Circumstances ]

Physical Parameter Table
Parameter Symbol Value Units Sigma Reference Notes
absolute magnitude H 17.6   n/a MPO528256  

362186 (2009 FF67)          Discovered 2009-Mar-19 by Hormuth, F. at Calar Alto
Reference: Last Updated: 2013-04-29

Alternate Designations
 2009 FF67 = 2005 EF208 
Ephemeris | Orbit Diagram | Orbital Elements | Mission Design | Physical Parameters | Discovery Circumstances ]
ABOUT SSD CREDITS/AWARDS PRIVACY/COPYRIGHT GLOSSARY LINKS
FirstGov 2021-Jul-27 11:16 UT
(server date/time)  
NASA Home Page
Site Manager:   Ryan S. Park
Webmaster  Alan B. Chamberlin